Location: Ida Center
(41.8662°N, 83.5713°W)
Time: 03:15:06
(UTC+00:00)

YAOGAN 6 - Pass Details

Date: 17 November 2019
Orbit: 467 x 504 km, 97.0° (Epoch: 09 December)

Event Time Altitude Azimuth Distance (km) Brightness Sun altitude
Rises 23:47:05 0° 168° (SSE) 2,501 6.2 -17.7°
Reaches altitude 10° 23:49:08 10° 168° (SSE) 1,625 5.2 -18.0°
Maximum altitude 23:52:37 87° 251° (WSW) 475 2.4 -18.7°
Drops below altitude 10° 23:56:08 10° 348° (NNW) 1,632 5.3 -19.3°
Sets 23:58:11 0° 349° (NNW) 2,513 6.2 -19.7°
